EHI
1 1 0 0 0 0 0 0 0 0 0 0 0 0 0 0 0 1 1 0 0 0 0 0 1 2 3 4 3 3 2 1 0 0 0 0 0 0 0 0 0 0 0 0
1 0 0 0 0 0 0 0 0 0 0 0 0 0 0 0 0 1 2 1 0 0 0 1 2 3 4 4 3 3 2 1 0 0 0 0 0 0 0 0 0 0 0 0
0 0 0 0 0 0 0 0 0 0 0 0 0 0 0 0 0 1 1 1 0 0 1 2 3 3 4 3 3 3 1 0 0 0 0 0 0 0 0 0 0 0 0 0
0 0 0 0 0 0 0 0 0 0 0 0 0 0 0 0 0 0 0 0 0 0 1 3 3 3 3 3 3 2 1 0 0 0 0 0 0 0 0 0 0 0 0 0
0 0 0 0 0 0 0 0 0 0 0 0 0 0 0 0 0 0 0 0 1 1 2 2 3 3 3 3 3 2 1 0 0 0 0 0 0 0 0 0 0 0 0 0
0 0 0 0 0 0 0 0 0 0 0 0 0 0 0 0 0 0 0 1 2 2 1 1 2 3 3 2 1 1 0 0 0 0 0 0 0 0 0 0 0 0 0 0
0 0 0 0 0 0 0 0 0 0 0 0 0 0 0 0 0 0 0 1 2 2 1 0 1 1 2 1 0 0 0 0 0 0 0 0 0 0 0 0 0 0 0 0
0 0 0 0 0 0 0 0 0 0 0 0 0 0 0 0 0 0 0 0 1 1 0 0 0 0 0 0 0 0 0 0 0 0 0 0 0 0 0 0 0 0 0 0
0 0 0 0 0 0 0 0 0 0 0 0 0 0 0 0 0 0 0 0 0 0 0 0 0 0 0 0 0 0 0 0 0 0 0 0 0 0 0 0 0 0 0 0
0 0 0 0 0 0 0 0 0 0 0 0 0 0 0 0 0 0 0 0 0 0 0 0 0 0 0 0 0 0 0 0 0 0 0 0 0 0 0 0 0 0 0 0
0 0 0 0 0 0 0 0 0 0 0 0 0 0 0 0 0 0 0 0 0 0 0 0 0 0 0 0 0 0 0 0 0 0 0 0 0 0 0 0 0 0 0 0
0 0 0 0 0 0 0 0 0 0 0 0 0 0 0 0 0 0 0 0 0 0 0 0 0 0 0 0 0 0 0 0 0 0 0 0 1 1 0 0 0 0 0 0
0 0 0 0 0 0 0 0 0 0 0 0 0 0 0 0 0 0 0 0 0 0 0 0 0 0 0 0 0 0 0 0 0 0 0 0 1 1 0 0 0 0 0 0
0 0 0 0 0 0 0 0 0 0 0 0 0 0 0 0 0 0 0 0 0 0 0 0 0 0 0 0 0 0 0 0 0 0 0 0 1 1 0 0 0 0 0 0
0 0 0 0 0 0 0 0 0 0 0 0 0 0 0 0 0 0 0 0 0 0 0 0 0 0 0 0 0 0 0 0 0 0 0 0 0 0 0 0 0 0 0 0
0 0 0 0 0 0 0 0 0 0 0 0 0 0 0 0 0 0 0 0 0 0 0 0 0 0 0 0 0 0 0 0 0 0 0 0 0 0 0 0 0 0 0 0
0 0 0 0 0 0 0 0 0 0 0 0 0 0 0 0 0 0 0 0 0 0 0 0 0 0 0 0 0 0 0 0 0 0 0 0 0 0 0 0 0 0 0 0
0 0 0 0 0 0 0 0 0 0 0 0 0 0 0 0 0 0 0 0 0 0 0 0 0 0 0 0 0 0 0 0 0 0 0 0 0 0 0 0 0 0 0 0
0 0 0 0 0 0 0 0 0 0 0 0 0 0 0 0 0 0 0 0 0 0 0 0 0 0 0 0 0 0 0 0 0 0 0 0 0 0 0 0 0 0 0 0
0 0 0 0 0 0 0 0 0 0 0 0 0 0 0 0 0 0 0 0 0 0 0 0 0 0 0 0 0 0 0 0 0 0 0 0 0 0 0 0 0 0 0 0
0 0 0 0 0 0 0 0 0 0 0 0 0 0 0 0 0 0 0 0 0 0 0 0 0 0 0 0 0 0 0 0 0 0 0 0 0 0 0 0 0 0 0 0
0 0 0 0 0 0 0 0 0 0 0 0 0 0 0 0 0 0 0 0 0 0 0 0 0 0 0 0 0 0 0 0 0 0 0 0 0 0 0 0 0 0 0 0
0 0 0 0 0 0 0 0 0 0 0 0 0 0 0 0 0 0 0 0 0 0 0 0 0 0 0 0 0 0 0 0 0 0 0 0 0 0 0 0 0 0 0 0
0 0 0 0 0 0 0 0 0 0 0 0 0 0 0 0 0 0 0 0 0 0 0 0 0 0 0 0 0 0 0 0 0 0 0 0 0 0 0 0 0 0 0 0
0 0 0 0 0 0 0 0 0 0 0 0 0 0 0 0 0 0 0 0 0 0 0 0 0 0 0 0 0 0 0 0 0 0 0 0 0 0 0 0 0 0 0 0
0 0 0 0 0 0 0 0 0 0 0 0 0 0 0 0 0 0 0 0 0 0 0 0 0 0 0 0 0 0 0 0 0 0 0 0 0 0 0 0 0 0 0 0
Wind_Speed
1 3 3 6 6 5 3 3 2 3 2 3 4 3 3 2 3 4 4 5 6 7 5 6 7 7 6 6 6 6 6 4 4 3 2 2 1 1 1 1 1 2 2 2
2 3 7 4 4 3 3 3 1 1 1 3 2 1 2 2 5 7 8 7 7 6 5 5 7 6 6 6 6 6 6 5 4 3 2 2 2 0 0 1 1 1 1 1
4 6 4 4 3 4 2 3 3 2 3 4 3 2 3 1 2 4 5 6 6 9 9 7 7 6 6 6 7 7 6 5 4 4 3 3 3 2 2 2 1 1 1 1
3 4 3 4 3 4 1 2 4 4 4 1 1 1 3 2 0 3 4 5 6 7 7 7 7 6 6 6 6 6 5 5 4 4 4 4 2 1 1 1 1 2 1 1
3 2 3 3 4 5 4 2 4 4 3 1 1 3 4 1 2 4 5 6 6 7 8 8 7 7 6 6 6 5 5 4 4 4 5 4 2 1 1 0 1 1 2 1
3 2 3 4 3 4 5 5 5 4 4 0 3 3 3 4 7 5 5 5 6 6 6 6 5 6 5 5 5 5 5 3 3 4 4 4 3 2 1 0 1 1 1 2
3 2 1 3 4 3 5 6 3 3 2 3 2 2 5 6 6 7 8 6 6 6 7 6 6 6 5 5 5 4 5 3 3 3 3 3 3 3 3 2 1 1 1 1
1 2 3 3 5 4 3 7 6 4 3 2 1 2 5 3 4 6 6 6 6 6 6 7 7 6 6 5 5 5 5 4 3 3 2 2 3 2 2 2 2 2 2 2
4 3 3 3 4 7 5 3 5 5 2 1 2 2 3 3 4 5 5 6 6 6 6 7 6 6 6 5 5 5 5 4 3 3 2 2 2 2 2 2 2 1 1 1
5 2 2 2 3 2 5 6 5 4 4 1 1 2 4 4 5 5 6 7 6 6 6 5 5 6 5 5 4 4 4 3 2 2 2 2 2 2 2 1 1 1 1 1
3 3 1 1 4 5 3 3 4 4 4 5 2 5 5 8 8 8 7 6 7 7 7 5 5 4 5 4 3 3 3 2 2 2 2 2 1 1 1 1 1 1 1 1
2 5 1 5 4 5 5 5 6 5 3 3 3 5 2 7 7 8 7 6 6 6 5 5 4 4 4 4 3 3 3 2 2 2 2 2 1 1 1 1 1 0 0 1
3 5 3 4 5 1 2 3 5 6 5 4 4 4 1 4 6 6 7 6 5 5 5 4 4 4 4 4 3 3 3 2 2 2 2 2 1 1 1 1 0 0 0 0
5 4 5 6 6 3 2 3 5 6 4 4 5 4 2 5 6 5 6 6 6 5 5 4 3 3 3 3 3 3 2 2 2 3 3 2 1 1 1 1 0 0 0 0
4 2 3 4 4 3 4 5 5 4 6 7 6 8 8 9 9 8 7 6 7 5 5 4 4 3 2 2 2 2 2 2 3 3 2 1 1 0 0 0 0 0 1 1
3 2 0 2 2 1 2 4 5 4 4 5 6 4 4 5 5 6 6 7 7 6 5 4 4 3 3 3 2 2 2 2 3 3 2 1 1 1 1 0 1 0 1 1
2 3 2 2 3 2 2 4 5 4 4 8 8 6 6 7 7 8 7 7 7 6 5 5 4 4 4 3 3 3 2 2 3 2 1 1 1 0 0 1 1 1 1 1
5 4 3 1 2 2 6 3 4 6 3 4 6 7 10 9 7 5 6 8 6 5 4 4 3 3 2 3 2 2 3 3 3 2 1 1 1 0 0 1 1 2 1 1
5 6 4 3 2 3 4 2 3 6 1 2 8 8 8 9 7 3 2 5 6 5 4 3 3 3 3 3 3 4 3 3 2 1 1 1 1 0 0 1 2 2 1 2
4 5 5 4 3 5 6 4 2 7 1 2 7 11 10 8 5 4 3 4 5 4 4 4 3 4 3 2 3 5 3 2 1 1 1 1 1 1 1 2 2 1 1 2
3 3 4 4 3 6 6 3 3 5 7 4 7 10 10 7 7 6 6 5 5 4 4 4 5 4 2 2 4 4 2 1 2 1 0 0 1 1 2 1 1 1 1 2
7 5 4 5 4 8 4 3 5 6 3 6 6 7 7 7 7 7 7 6 5 4 4 4 4 3 2 3 4 3 1 2 1 0 0 0 1 1 1 0 1 1 1 1
5 7 6 7 7 4 2 3 3 6 6 5 6 6 9 9 8 7 6 6 5 4 4 3 4 3 2 2 3 3 1 1 0 1 1 1 2 2 1 1 1 1 1 1
2 2 4 2 2 1 2 3 4 5 6 6 7 8 9 9 8 7 6 5 4 4 3 3 4 4 1 1 1 1 1 1 1 0 1 1 1 2 2 1 1 2 2 2
3 3 3 2 1 3 2 2 5 6 7 8 7 7 8 9 8 7 5 5 4 3 3 3 3 3 2 1 1 0 0 1 1 1 1 1 1 2 2 2 2 3 4 4
3 5 6 6 7 5 4 3 5 7 7 7 8 6 6 7 7 6 5 4 4 4 3 3 2 2 1 1 0 0 0 1 1 0 1 1 2 2 2 2 3 5 5 7
Wind_Direction
195 99 207 212 194 191 182 170 195 231 212 128 157 193 241 190 143 152 163 168 167 165 161 145 139 138 135 133 130 126 123 124 115 104 101 93 78 44 45 60 88 80 73 74
48 242 227 205 189 183 182 143 187 303 62 115 151 230 266 182 180 174 173 175 176 161 148 140 138 142 143 144 140 135 136 134 131 129 133 135 131 120 64 357 32 47 60 51
194 239 221 174 179 167 175 174 179 142 45 46 90 9 329 333 161 165 172 172 167 164 157 151 142 146 142 146 153 149 150 144 140 128 102 75 53 29 18 0 340 322 323 359
229 243 174 160 171 153 198 208 140 117 86 357 100 142 293 265 139 158 176 175 174 166 156 153 152 152 153 157 153 149 149 144 141 129 121 123 125 156 235 242 270 308 319 327
249 210 155 171 194 159 182 151 112 112 114 68 36 112 281 219 190 198 190 185 178 171 161 163 164 161 156 151 148 149 142 141 143 136 139 135 140 184 237 312 335 328 327 326
241 234 189 187 174 144 134 81 61 54 75 77 234 150 246 218 201 194 186 177 172 168 161 155 153 142 138 137 137 139 135 143 146 141 145 150 156 163 135 346 328 320 319 324
322 305 232 130 103 63 89 88 59 23 23 253 223 157 242 229 195 177 178 179 171 162 156 153 147 143 147 146 147 148 144 147 153 152 167 176 175 170 176 198 204 219 285 296
127 276 231 162 149 158 145 133 149 168 199 271 334 230 262 225 162 158 163 161 155 158 165 166 163 159 160 159 155 157 156 162 168 170 180 178 176 171 191 198 189 199 217 236
171 245 256 172 149 140 133 149 159 131 137 107 277 283 336 66 116 136 147 148 158 162 165 168 165 166 166 166 166 166 165 171 180 177 167 174 179 179 192 198 186 205 234 235
154 193 251 196 97 68 141 145 103 115 136 152 287 251 215 180 163 155 162 162 163 157 155 159 164 168 169 167 165 162 164 174 183 182 181 179 194 198 194 172 190 219 237 230
138 146 271 148 183 186 144 130 123 123 147 149 185 259 221 182 172 164 169 164 158 158 160 163 163 160 154 150 147 150 158 156 171 187 179 154 183 190 177 180 214 215 225 227
138 123 202 245 250 184 163 164 145 145 184 164 159 261 268 171 167 156 157 160 157 156 157 154 151 142 143 149 149 153 159 157 170 170 159 164 156 130 140 187 229 175 182 242
119 109 83 348 339 340 167 174 154 134 122 146 156 248 345 139 137 148 151 152 149 145 139 134 129 136 150 159 162 163 166 169 162 140 130 129 120 135 163 197 226 85 98 343
111 113 153 188 219 221 209 178 150 125 138 169 190 179 180 151 144 149 148 150 145 142 141 139 138 146 155 161 166 166 175 164 137 123 121 118 148 185 193 190 126 229 267 328
98 131 210 234 244 201 188 180 160 152 167 165 186 175 192 179 166 161 150 138 132 133 139 146 147 153 148 140 142 152 165 156 138 125 129 164 175 124 119 86 282 329 342 321
98 135 73 326 303 153 178 180 168 166 159 148 142 186 196 162 138 139 143 139 141 148 152 150 146 144 150 156 159 154 152 158 134 134 158 178 130 80 57 321 306 336 309 315
114 119 98 287 309 50 285 226 181 167 169 155 170 191 148 136 150 159 153 145 150 157 155 154 159 162 168 172 165 164 166 144 126 139 155 164 152 128 311 352 9 322 290 309
136 116 123 137 55 201 246 269 161 144 168 168 152 154 155 153 152 144 145 146 147 152 151 157 162 160 163 156 147 138 122 117 122 126 148 165 148 181 326 12 337 312 299 293
148 134 120 121 170 262 289 278 157 133 149 181 147 142 134 123 87 57 131 142 146 152 154 154 155 148 132 131 133 114 111 109 109 129 209 220 185 202 302 302 286 281 295 296
90 105 120 133 165 222 241 268 182 107 163 250 150 148 146 125 123 213 192 139 130 127 129 126 116 102 107 121 119 108 109 105 132 218 239 234 192 198 236 253 263 278 291 286
102 90 132 154 197 257 257 268 110 135 215 208 164 155 152 156 172 169 145 129 127 124 117 114 107 104 117 122 110 107 110 181 225 216 192 11 231 225 232 247 274 299 309 323
166 158 171 149 181 247 259 128 164 195 167 151 152 151 140 129 123 128 130 127 124 114 106 110 108 103 106 113 110 107 160 251 243 148 102 318 297 275 275 233 284 303 307 314
182 184 176 178 204 242 235 174 163 140 131 138 142 140 130 126 131 133 131 131 130 126 121 114 116 105 85 103 119 129 230 264 86 72 300 289 306 305 276 220 241 286 287 282
278 125 116 128 262 300 88 99 98 114 122 129 130 131 128 132 138 137 138 137 133 129 129 120 112 108 97 79 102 151 194 119 93 80 293 295 305 307 306 277 240 235 248 259
223 127 112 126 202 79 42 112 117 103 104 109 111 119 132 133 138 143 145 145 143 135 133 128 132 143 162 147 90 75 96 90 71 4 312 305 294 278 287 285 264 251 244 235
219 165 159 197 204 167 195 188 136 122 124 127 119 109 121 132 139 138 144 150 146 141 134 131 136 146 163 142 113 318 312 112 111 4 316 304 298 293 283 288 306 298 283 282